Snowfall_Accumulation
0.0 0.0 0.0 0.0 0.0 0.0 0.0 0.0 0.0 0.0 0.0 0.0 0.0 0.0 0.0 0.0 0.0 0.0 0.0 nan nan nan nan nan nan nan nan nan nan nan nan nan nan nan nan nan nan nan
0.0 0.0 0.0 0.0 0.0 0.0 0.0 0.0 0.0 0.0 0.0 0.0 0.0 0.0 0.0 0.0 0.0 0.0 0.0 nan nan nan nan nan nan nan nan nan nan nan nan nan nan nan nan nan nan nan
0.0 0.0 0.0 0.0 0.0 0.0 0.0 0.0 0.0 0.1 0.2 0.2 0.1 0.0 0.0 0.0 0.0 0.0 0.0 0.0 0.0 nan nan nan nan nan nan nan nan nan nan nan nan nan nan nan nan nan
0.0 0.0 0.0 0.0 0.0 0.0 0.1 0.0 0.0 0.0 0.1 0.0 0.0 0.0 0.0 0.0 0.0 0.0 0.0 0.0 0.0 nan nan nan nan nan nan nan nan nan nan nan nan nan nan nan nan nan
0.0 0.0 0.0 0.0 0.0 0.0 0.0 0.1 0.1 0.0 0.0 0.0 0.0 0.0 0.0 0.0 0.0 0.0 0.0 0.0 0.0 nan nan nan nan nan nan nan nan nan nan nan nan nan nan nan nan nan
0.0 0.0 0.0 0.0 0.0 0.0 0.0 0.0 0.0 0.0 0.0 0.0 0.0 0.1 0.0 0.0 0.0 0.0 0.0 0.0 0.0 0.0 nan nan nan nan nan nan nan nan nan nan nan nan nan nan nan nan
0.0 0.0 0.0 nan nan nan 0.0 0.0 0.0 0.0 0.0 0.3 0.2 0.1 0.2 0.0 0.0 0.0 0.0 0.0 0.0 0.0 0.0 0.0 0.0 0.0 0.0 nan nan nan nan nan nan nan nan nan nan nan
0.0 0.0 0.0 0.0 0.0 nan nan nan nan 0.0 0.0 0.3 0.6 0.0 0.0 0.0 0.0 0.0 0.2 0.3 0.5 0.0 0.0 0.0 0.0 0.0 0.0 0.0 nan nan nan nan nan nan nan nan nan nan
0.0 0.0 0.0 0.0 nan 0.0 nan nan nan nan nan 0.0 0.0 0.0 0.0 0.0 0.1 0.1 0.1 0.4 0.4 0.0 0.0 0.0 0.0 0.0 0.0 0.0 nan nan nan nan nan nan nan nan nan nan
0.0 0.0 0.0 0.0 0.0 0.0 0.0 0.0 0.0 0.0 0.0 0.0 0.0 0.0 0.0 0.0 0.0 0.1 0.1 0.1 0.0 0.0 0.0 1.2 0.0 0.0 0.0 0.0 nan nan nan nan nan nan nan nan nan nan
0.0 0.0 0.0 0.0 nan nan 0.0 0.0 0.0 0.0 nan nan nan nan nan nan nan 0.3 0.7 1.2 0.5 0.1 0.0 0.1 0.1 0.2 0.2 0.0 0.0 nan nan nan nan nan nan nan nan nan
0.0 0.0 nan 0.0 nan nan 0.0 0.0 0.0 0.0 0.0 0.0 0.0 0.0 nan nan nan 0.0 1.2 5.3 2.3 1.6 0.2 3.8 0.8 1.0 3.2 0.2 0.2 0.0 0.0 nan nan nan nan nan nan 0.0
0.0 0.0 0.0 nan nan nan nan 0.0 0.0 0.0 0.0 0.0 0.0 0.0 0.0 0.0 0.0 0.1 0.1 3.9 7.1 4.5 0.3 3.5 6.4 2.0 3.0 2.0 0.4 0.3 0.2 0.0 0.0 0.0 nan nan nan 0.0
0.0 0.0 0.0 nan nan nan nan nan nan nan 0.0 0.0 0.2 0.3 0.6 0.7 0.6 0.4 0.0 0.3 0.7 3.8 0.5 2.1 18.1 6.6 8.9 4.6 2.1 0.8 0.6 0.3 0.4 0.2 0.1 nan nan nan
0.0 0.0 nan nan nan nan nan nan nan 0.0 0.1 0.8 0.7 1.0 1.1 1.1 1.7 1.9 1.0 0.9 3.0 1.3 1.9 4.1 11.0 6.6 7.8 8.3 5.7 2.3 2.8 0.9 0.6 1.2 0.7 0.5 0.3 0.2
nan 0.1 nan 0.0 nan nan 0.0 0.0 0.0 0.0 0.6 1.2 1.2 0.8 1.2 3.3 3.5 3.3 6.8 6.0 7.9 4.7 1.5 3.0 4.8 6.5 9.3 3.6 6.2 4.2 1.5 8.4 1.7 1.5 1.4 0.6 0.3 0.1
nan 0.0 0.0 0.0 0.0 0.0 0.0 0.0 0.0 0.0 0.9 0.9 1.6 1.8 2.0 3.3 4.4 4.6 7.2 7.2 9.4 6.7 5.3 2.5 0.6 1.2 2.3 4.7 7.7 2.9 3.9 3.0 1.7 3.7 2.8 1.7 0.8 0.3
0.0 0.0 0.0 0.2 0.2 0.0 0.1 0.1 0.1 0.7 0.9 1.6 1.9 2.3 4.5 5.7 7.2 8.3 8.6 8.3 9.2 5.6 6.1 4.7 4.9 6.3 3.9 1.9 4.7 6.1 2.7 3.0 2.4 2.2 1.7 3.3 1.5 0.4
0.0 0.4 0.4 0.5 0.5 0.7 0.8 1.3 2.3 1.4 2.0 3.5 3.5 4.0 4.9 6.7 6.9 8.3 7.9 6.3 5.7 5.1 5.4 6.5 10.0 12.0 12.7 8.8 1.3 nan 7.6 3.4 2.0 1.9 0.9 1.2 2.3 0.7
0.4 0.6 0.7 0.7 0.7 1.2 1.5 2.5 3.0 2.7 3.5 4.3 5.0 5.6 6.8 9.3 10.3 9.4 6.6 8.4 5.3 5.8 8.1 7.5 11.4 16.3 20.5 18.0 13.2 5.1 nan 4.6 3.4 3.7 2.6 0.5 0.3 nan
0.5 0.7 0.5 0.8 1.2 1.6 2.1 3.0 3.1 5.3 7.2 8.5 6.4 7.1 6.9 8.8 7.9 5.6 4.8 2.6 nan 6.4 10.1 7.9 7.7 nan 10.5 8.1 8.9 2.4 1.8 nan 0.6 6.7 4.6 4.2 2.4 0.9
0.5 0.7 0.8 1.1 1.4 2.2 3.6 4.5 5.7 5.7 6.2 6.1 6.5 7.1 6.1 5.5 7.0 4.8 3.7 6.8 3.8 5.2 8.1 7.5 4.9 6.5 10.1 11.5 10.4 4.3 3.2 1.0 nan nan nan nan 12.1 17.6
0.8 0.8 1.0 1.4 1.8 2.5 3.8 5.4 6.7 6.9 6.6 7.7 7.1 5.8 5.2 7.7 3.3 3.5 4.0 3.3 4.9 7.1 5.0 6.5 4.6 5.1 6.5 9.2 11.6 6.6 3.7 3.7 1.7 2.4 2.5 nan nan nan
Water_Equivalent
0.00 0.00 0.00 0.00 0.00 0.00 0.00 0.00 0.00 0.00 0.00 0.00 0.00 0.00 0.00 0.00 0.00 0.00 0.00 nan nan nan nan nan nan nan nan nan nan nan nan nan nan nan nan nan nan nan
0.00 0.00 0.00 0.00 0.00 0.00 0.00 0.00 0.00 0.00 0.00 0.00 0.00 0.00 0.00 0.00 0.00 0.00 0.00 nan nan nan nan nan nan nan nan nan nan nan nan nan nan nan nan nan nan nan
0.00 0.00 0.00 0.00 0.00 0.00 0.00 0.00 0.00 0.02 0.07 0.08 0.05 0.00 0.00 0.00 0.00 0.00 0.00 0.00 0.00 nan nan nan nan nan nan nan nan nan nan nan nan nan nan nan nan nan
0.00 0.00 0.00 0.00 0.00 0.00 0.03 0.00 0.00 0.01 0.04 0.00 0.00 0.00 0.00 0.00 0.00 0.00 0.00 0.00 0.00 nan nan nan nan nan nan nan nan nan nan nan nan nan nan nan nan nan
0.00 0.00 0.00 0.00 0.00 0.00 0.01 0.03 0.03 0.00 0.00 0.00 0.00 0.00 0.00 0.00 0.00 0.00 0.00 0.00 0.00 nan nan nan nan nan nan nan nan nan nan nan nan nan nan nan nan nan
0.00 0.00 0.00 0.00 0.00 0.00 0.00 0.00 0.00 0.00 0.00 0.00 0.01 0.06 0.00 0.00 0.00 0.00 0.00 0.00 0.00 0.00 nan nan nan nan nan nan nan nan nan nan nan nan nan nan nan nan
0.00 0.00 0.00 nan nan nan 0.00 0.00 0.00 0.00 0.01 0.12 0.08 0.02 0.09 0.00 0.00 0.00 0.00 0.00 0.00 0.00 0.00 0.00 0.00 0.00 0.00 nan nan nan nan nan nan nan nan nan nan nan
0.00 0.01 0.00 0.00 0.00 nan nan nan nan 0.00 0.01 0.12 0.21 0.01 0.00 0.00 0.00 0.00 0.06 0.08 0.14 0.00 0.00 0.00 0.00 0.00 0.00 0.00 nan nan nan nan nan nan nan nan nan nan
0.01 0.00 0.00 0.00 nan 0.00 nan nan nan nan nan 0.00 0.00 0.00 0.00 0.00 0.02 0.04 0.03 0.12 0.11 0.00 0.00 0.01 0.00 0.00 0.00 0.00 nan nan nan nan nan nan nan nan nan nan
0.00 0.00 0.00 0.00 0.00 0.00 0.00 0.00 0.00 0.00 0.00 0.00 0.00 0.00 0.00 0.00 0.01 0.02 0.04 0.02 0.00 0.00 0.00 0.31 0.00 0.00 0.00 0.00 nan nan nan nan nan nan nan nan nan nan
0.00 0.00 0.00 0.00 nan nan 0.00 0.01 0.00 0.00 nan nan nan nan nan nan nan 0.11 0.21 0.34 0.13 0.04 0.01 0.04 0.05 0.07 0.06 0.00 0.00 nan nan nan nan nan nan nan nan nan
0.00 0.00 nan 0.00 nan nan 0.00 0.00 0.00 0.00 0.01 0.00 0.00 0.00 nan nan nan 0.00 0.32 1.18 0.57 0.36 0.08 0.74 0.20 0.23 0.64 0.09 0.07 0.01 0.00 nan nan nan nan nan nan 0.00
0.00 0.00 0.00 nan nan nan nan 0.00 0.00 0.00 0.00 0.00 0.00 0.00 0.00 0.01 0.00 0.02 0.03 0.83 1.38 0.91 0.10 0.78 1.21 0.43 0.68 0.44 0.12 0.11 0.06 0.01 0.00 0.00 nan nan nan 0.00
0.00 0.00 0.00 nan nan nan nan nan nan nan 0.00 0.00 0.07 0.13 0.21 0.24 0.23 0.15 0.01 0.09 0.19 0.68 0.13 0.49 3.22 1.20 1.53 0.74 0.40 0.23 0.16 0.10 0.11 0.05 0.03 nan nan nan
0.00 0.00 nan nan nan nan nan nan nan 0.00 0.03 0.18 0.20 0.35 0.35 0.36 0.43 0.44 0.24 0.24 0.71 0.34 0.45 0.93 1.93 1.13 1.30 1.29 0.84 0.41 0.55 0.26 0.17 0.32 0.19 0.13 0.10 0.07
nan 0.05 nan 0.00 nan nan 0.00 0.00 0.00 0.00 0.13 0.26 0.27 0.20 0.30 0.70 0.71 0.71 1.20 1.13 1.33 0.88 0.37 0.70 0.91 1.05 1.43 0.59 0.98 0.65 0.31 1.35 0.49 0.47 0.45 0.19 0.11 0.03
nan 0.00 0.00 0.00 0.00 0.00 0.00 0.00 0.00 0.01 0.22 0.21 0.34 0.37 0.43 0.67 0.77 0.85 1.27 1.27 1.43 1.02 0.82 0.55 0.13 0.27 0.45 0.76 1.07 0.56 0.77 0.63 0.52 1.08 0.75 0.46 0.26 0.12
0.00 0.00 0.00 0.06 0.07 0.01 0.02 0.03 0.03 0.18 0.24 0.40 0.47 0.54 0.85 1.02 1.22 1.42 1.46 1.28 1.33 0.83 0.88 0.77 0.80 0.90 0.79 0.43 0.90 1.06 0.55 0.64 0.69 0.70 0.54 0.62 0.39 0.13
0.00 0.11 0.11 0.13 0.14 0.17 0.21 0.33 0.53 0.37 0.55 0.92 0.85 0.95 1.09 1.21 1.33 1.31 1.20 0.94 0.80 0.76 0.78 0.98 1.42 1.56 1.49 0.99 0.29 nan 1.29 0.73 0.55 0.48 0.28 0.35 0.56 0.26
0.14 0.18 0.20 0.18 0.20 0.30 0.38 0.62 0.72 0.68 0.81 0.98 1.08 1.23 1.47 1.73 1.60 1.37 0.95 1.07 0.76 0.86 1.09 1.13 1.58 2.12 2.67 2.27 1.61 0.92 nan 0.93 0.66 0.67 0.55 0.15 0.10 nan
0.16 0.20 0.16 0.23 0.31 0.44 0.54 0.72 0.75 1.18 1.62 1.83 1.38 1.56 1.52 1.69 1.24 0.86 0.69 0.37 nan 0.90 1.21 0.98 1.26 nan 1.99 1.31 1.17 0.41 0.48 nan 0.17 1.21 0.96 0.68 0.44 0.23
0.15 0.21 0.22 0.31 0.39 0.57 0.89 1.06 1.31 1.33 1.40 1.33 1.43 1.56 1.29 1.12 1.11 0.68 0.49 0.92 0.55 0.76 1.10 1.20 0.87 1.17 1.64 1.56 1.26 0.55 0.56 0.29 nan nan nan nan 1.90 2.44
0.24 0.24 0.32 0.43 0.53 0.67 0.94 1.25 1.50 1.54 1.43 1.67 1.55 1.21 1.06 1.17 0.55 0.57 0.58 0.49 0.71 0.95 0.76 0.85 0.75 0.84 0.99 1.33 1.49 0.87 0.47 0.53 0.34 0.46 0.64 nan nan nan
SL_Ratio
nan nan nan nan nan nan nan nan nan nan nan nan nan nan nan nan nan nan nan nan nan nan nan nan nan nan nan nan nan nan nan nan nan nan nan nan nan nan
nan nan nan nan nan nan nan nan nan nan nan nan nan nan nan nan nan nan nan nan nan nan nan nan nan nan nan nan nan nan nan nan nan nan nan nan nan nan
nan nan nan nan nan nan nan nan 3.0 2.5 2.5 2.5 2.5 nan nan nan nan nan nan nan nan nan nan nan nan nan nan nan nan nan nan nan nan nan nan nan nan nan
nan nan nan nan nan nan 2.5 2.1 2.5 2.5 2.5 nan nan nan nan nan nan nan nan nan nan nan nan nan nan nan nan nan nan nan nan nan nan nan nan nan nan nan
nan nan nan nan nan nan 2.6 2.5 2.5 nan nan nan nan nan nan nan nan nan nan nan nan nan nan nan nan nan nan nan nan nan nan nan nan nan nan nan nan nan
nan nan nan nan nan nan nan nan nan nan nan nan 2.5 2.5 nan nan 1.7 nan nan nan nan nan nan nan nan nan nan nan nan nan nan nan nan nan nan nan nan nan
nan nan nan nan nan nan nan nan nan nan 2.5 2.6 2.8 2.7 2.8 nan nan nan nan nan nan nan nan nan nan nan nan nan nan nan nan nan nan nan nan nan nan nan
nan 2.6 nan nan nan nan nan nan nan nan 2.7 2.8 2.9 2.9 nan nan nan nan 3.1 3.3 3.8 nan 2.8 nan nan nan nan nan nan nan nan nan nan nan nan nan nan nan
2.6 2.8 nan nan nan nan nan nan nan nan nan nan nan nan nan nan 3.1 3.3 3.3 3.4 3.6 nan 3.0 4.0 2.5 3.3 nan nan nan nan nan nan nan nan nan nan nan nan
nan nan nan nan nan nan nan 2.7 3.3 nan nan nan nan nan nan 0.0 3.1 3.3 3.3 3.5 2.5 2.5 2.5 3.8 2.5 5.0 nan nan nan nan nan nan nan nan nan nan nan nan
nan nan nan nan nan nan nan 2.9 nan nan nan nan nan nan nan nan nan 3.0 3.4 3.7 3.6 2.5 2.4 3.3 2.6 2.9 2.7 2.5 nan nan nan nan nan nan nan nan nan nan
nan nan nan nan nan nan nan nan nan nan 3.1 3.1 nan nan nan nan nan 2.5 3.8 4.5 4.1 4.3 2.8 5.2 4.2 4.3 5.0 2.7 2.5 2.4 nan nan nan nan nan nan nan nan
3.0 nan nan nan nan nan nan nan nan nan nan nan 1.7 nan 0.0 2.6 2.5 3.1 3.6 4.8 5.2 5.0 3.1 4.5 5.3 4.6 4.4 4.4 3.1 2.6 2.5 2.6 5.0 nan nan nan nan nan
nan nan nan nan nan nan nan nan nan nan nan nan 2.8 2.6 2.8 3.0 2.7 2.8 3.0 3.6 3.9 5.6 4.1 4.3 5.6 5.5 5.8 6.1 5.4 3.6 3.5 3.2 3.4 3.5 3.4 nan nan nan
nan nan nan nan nan nan nan nan nan nan 3.9 4.2 3.4 3.0 3.1 3.1 3.9 4.3 4.1 4.0 4.3 3.9 4.2 4.4 5.7 5.8 6.0 6.4 6.8 5.7 5.2 3.5 3.3 3.8 3.6 3.5 3.2 3.0
nan 2.7 nan nan nan nan nan nan nan 5.0 4.5 4.7 4.7 3.9 3.8 4.7 5.0 4.6 5.7 5.3 5.9 5.4 4.0 4.3 5.3 6.2 6.5 6.0 6.4 6.4 4.7 6.2 3.6 3.2 3.1 3.0 2.8 2.7
nan nan nan nan nan nan nan 2.8 2.3 3.8 4.2 4.5 4.8 4.9 4.6 4.9 5.7 5.4 5.7 5.7 6.6 6.5 6.5 4.6 4.4 4.6 5.1 6.2 7.2 5.2 5.0 4.8 3.2 3.4 3.7 3.6 2.9 2.6
nan nan nan 3.3 3.4 3.8 4.0 4.0 3.4 3.5 3.9 4.0 4.0 4.3 5.3 5.6 5.9 5.8 5.9 6.5 6.9 6.7 6.9 6.1 6.1 7.0 4.9 4.3 5.3 5.8 4.8 4.7 3.5 3.2 3.1 5.4 3.8 2.8
nan 3.3 3.6 3.6 3.7 3.8 3.9 4.0 4.3 3.7 3.7 3.8 4.1 4.2 4.5 5.5 5.2 6.3 6.6 6.8 7.1 6.8 6.9 6.7 7.1 7.7 8.5 8.9 4.3 nan 5.9 4.6 3.7 3.9 3.2 3.6 4.1 2.8
2.9 3.4 3.7 3.7 3.8 3.9 4.0 4.1 4.1 4.0 4.3 4.4 4.6 4.6 4.6 5.4 6.4 6.8 6.9 7.9 7.0 6.8 7.4 6.6 7.2 7.7 7.7 7.9 8.2 5.5 nan 4.9 5.2 5.6 4.7 3.2 2.6 nan
3.1 3.3 3.4 3.6 3.8 3.7 4.0 4.2 4.1 4.5 4.5 4.6 4.6 4.6 4.5 5.2 6.4 6.5 7.0 6.9 nan 7.1 8.3 8.0 6.1 nan 5.3 6.2 7.5 5.9 3.7 nan 3.8 5.6 4.8 6.1 5.6 4.2
3.3 3.4 3.5 3.4 3.6 3.8 4.1 4.2 4.3 4.3 4.4 4.6 4.6 4.6 4.7 4.9 6.3 7.1 7.4 7.4 7.0 6.8 7.4 6.2 5.7 5.6 6.1 7.4 8.3 7.8 5.7 3.4 nan nan nan nan 6.4 7.2
3.2 3.4 3.2 3.2 3.3 3.7 4.0 4.4 4.4 4.5 4.6 4.6 4.6 4.8 4.9 6.6 6.0 6.3 6.8 6.7 6.9 7.5 6.5 7.6 6.2 6.1 6.6 7.0 7.8 7.6 7.9 7.0 4.9 5.1 3.9 nan nan nan